Location: La Sioule Rivi�re
(46.3664°N, 3.3197°E)
Time: 13:05:30
(UTC+00:00)

USA 307 - Pass Details

Date: 29 October 2020
Orbit: 569 x 579 km, 54.0° (Epoch: 23 November)

Event Time Altitude Azimuth Distance (km) Brightness Sun altitude
Rises 16:59:11 0° 300° (WNW) 2,791 7.2 -4.7°
Reaches altitude 10° 17:01:34 10° 308° (NW) 1,889 6.1 -5.1°
Maximum altitude 17:05:38 40° 19° (NNE) 851 3.6 -5.7°
Drops below altitude 10° 17:09:41 10° 90° (E) 1,878 4.9 -6.4°
Enters shadow 17:10:18 - 92° (E) 2,107 5.2 -6.5°
